#timestamp,LO_Frequency,Hit,StdDev 
1705730415.1,286047001.2,N
1705730416.0,286047001.2,N
1705730435.8,286047000.8,N
1705730455.7,286047000.5,N
1705730475.5,286047000.4,N
1705730495.3,286047000.1,N
1705730515.2,286046999.9,N
1705730535.0,286046999.8,N
1705730535.9,286046999.8,N
1705730555.8,286047000.9,N
1705730575.6,286047002.4,N
1705730595.4,286047000.9,N
1705730615.3,286046998.2,N
1705730635.1,286046998.8,N
1705730655.8,286046998.1,N
1705730675.7,286046999.4,N
1705730695.5,286046998.3,N
1705730715.4,286046998.1,N
1705730735.2,286046999.0,N
1705730755.0,286046998.3,N
1705730755.9,286046998.3,N
1705730775.8,286047001.0,N
1705730795.6,286046998.4,N
1705730815.4,286046998.5,N
1705730835.3,286046998.5,N
1705730855.1,286047000.0,N
1705730875.9,286047001.7,N
1705730895.7,286047002.6,N
1705730915.5,286047004.4,Y
1705730935.4,286047001.9,P
1705730955.2,286047002.3,N
1705730975.1,286047002.5,N
1705730976.0,286047002.5,N
1705730995.8,286047004.3,Y
1705731015.6,286047000.3,P
1705731035.5,286047001.5,N
1705731055.3,286047001.7,N
1705731075.2,286047001.9,Y
1705731095.9,286046999.9,P
1705731115.7,286047000.0,N
1705731135.6,286046999.9,N
1705731155.4,286047000.0,N
1705731175.2,286046998.1,Y
1705731195.1,286047001.0,P
1705731196.0,286047001.0,N
1705731215.8,286047001.0,N
1705731235.7,286046999.6,N
1705731255.5,286046998.1,Y
1705731275.3,286046997.1,P
1705731295.2,286046997.4,N
1705731315.0,286046997.2,N
1705731315.9,286046997.2,N
1705731335.8,286046997.3,N
1705731355.6,286046997.5,N
1705731375.4,286046996.7,N
1705731395.3,286046997.0,N
1705731415.1,286046997.1,N
1705731435.9,286046996.5,Y
1705731455.7,286047000.6,P
1705731475.5,286047000.4,N
1705731495.4,286047001.0,N
1705731515.2,286046999.9,N
1705731535.0,286047000.7,N
1705731535.9,286047000.7,N
1705731555.8,286047000.9,N
1705731575.6,286046999.0,N
1705731595.5,286046998.6,N
1705731615.3,286047000.6,N
1705731635.1,286047000.6,N
1705731655.9,286047000.2,N
1705731675.7,286046999.7,N
1705731695.5,286047000.4,N
1705731715.4,286047002.1,N
1705731735.2,286047002.5,N
1705731755.1,286047000.4,N
1705731756.0,286047000.4,N
1705731775.8,286047000.3,N
1705731795.6,286047001.6,N
1705731815.5,286047001.5,N
1705731835.3,286047002.5,N
1705731855.2,286047002.7,N
1705731875.9,286047002.7,N
1705731895.7,286047000.4,N
1705731915.6,286047001.9,N
1705731935.4,286047000.2,N
1705731955.2,286047000.5,N
1705731975.1,286046998.3,N
1705731976.0,286046998.3,N
1705731995.8,286047002.7,N
1705732015.7,286046999.7,N
1705732035.5,286047000.6,N
1705732055.3,286046999.8,N
1705732075.2,286047001.3,N
1705732095.0,286047001.3,N
1705732095.9,286047001.3,N
1705732115.7,286047002.4,N
1705732135.6,286046999.8,N
1705732155.4,286047000.0,N
1705732175.3,286047002.1,N
1705732195.1,286047000.1,N
1705732215.8,286047002.2,N
1705732235.7,286047002.2,N
1705732255.5,286047001.8,N
1705732275.4,286047002.8,N
1705732295.2,286047001.5,N
1705732315.0,286046999.8,N
1705732315.9,286046999.8,N
1705732335.8,286047000.7,N
1705732355.6,286047002.5,N
1705732375.4,286047001.3,N
1705732395.3,286047001.6,N
1705732415.1,286047004.1,Y
1705732435.9,286047002.3,P
1705732455.7,286047000.0,N
1705732475.5,286047000.1,N
1705732495.4,286046999.7,N
1705732515.2,286047002.6,N
1705732535.0,286047001.5,N
1705732536.0,286047001.5,N
1705732555.8,286047004.2,Y
1705732575.6,286047002.4,P
1705732595.5,286047000.4,N
1705732615.3,286046998.1,N
1705732635.1,286047000.6,N
1705732655.9,286047001.0,N
1705732675.7,286047002.7,N
1705732695.6,286047000.3,N
1705732715.4,286047000.0,N
1705732735.2,286046998.7,N
1705732755.1,286046998.1,N
1705732756.0,286046998.1,N
1705732775.8,286046998.7,N
1705732795.6,286047000.8,N
1705732815.5,286047001.0,N
1705732835.3,286047002.3,N
1705732855.2,286047002.4,N
1705732875.9,286046999.8,N
1705732895.7,286047000.1,N
1705732915.6,286046999.9,N
1705732935.4,286047001.5,N
1705732955.2,286047002.8,N
1705732975.1,286046999.9,N
1705732976.0,286046999.9,N
1705732995.8,286047000.6,N
1705733015.7,286046999.7,N
1705733035.5,286047000.1,N
1705733055.3,286046999.7,N
1705733075.2,286047002.3,N
1705733095.0,286047002.0,N
1705733095.9,286047002.0,N
1705733115.7,286047002.6,N
1705733135.6,286047000.8,N
1705733155.4,286047000.8,N
1705733175.3,286047000.8,N
1705733195.1,286047000.9,N
1705733215.8,286046999.9,N
1705733235.7,286047001.0,N
1705733255.5,286047000.9,N
1705733275.4,286047000.0,N
1705733295.2,286047000.9,N
1705733315.0,286047002.7,N
1705733315.9,286047002.7,N
1705733335.8,286046999.8,N
1705733355.6,286047001.0,N
1705733375.4,286047000.3,N
1705733395.3,286047000.0,N
1705733415.1,286047000.3,N
1705733435.9,286047001.2,N
1705733455.7,286046998.7,N
1705733475.5,286047000.4,N
1705733495.4,286047000.3,N
1705733515.2,286047002.4,N
1705733535.0,286047000.9,N
1705733536.0,286047000.9,N
1705733555.8,286047002.7,N
1705733575.6,286047002.1,N
1705733595.5,286047002.3,N
1705733615.3,286047000.2,N
1705733635.1,286047002.7,N
1705733655.9,286047000.1,N
1705733675.7,286047000.3,N
1705733695.6,286047000.0,N
1705733715.4,286047000.4,N
1705733735.2,286047000.1,N
1705733755.1,286047000.3,N
1705733756.0,286047000.3,N
1705733775.8,286047000.3,N
1705733795.6,286047000.5,N
1705733815.5,286047000.8,N
1705733835.3,286047000.0,N
1705733855.2,286046999.9,N
1705733875.9,286047002.6,N
1705733895.7,286047001.5,N
1705733915.6,286047003.9,Y
1705733935.4,286047002.6,P
1705733955.3,286047002.8,P
1705733975.1,286047002.4,N
1705733976.0,286047002.4,N
1705733995.8,286046999.7,N
